RH
22 16 10 8 5 4 3 3 4 4 4 3 3 3 4 4 4 5 5 6 6 6 6 5 4 4 4 4 4 5 5 6 6 6 7 7 6 6 6 6 6 8 7
20 13 7 5 4 3 3 3 3 4 4 3 4 5 5 6 6 7 8 8 8 8 7 7 6 6 6 7 7 7 8 8 9 9 8 8 7 7 6 6 6 7 9
17 11 5 4 3 4 4 4 5 5 5 5 6 6 6 7 8 9 9 10 10 10 10 10 10 9 9 9 9 9 10 10 10 10 9 8 7 7 6 6 5 5 5
16 9 4 4 3 4 5 5 5 5 6 7 7 7 8 8 9 9 9 9 9 9 10 10 11 11 12 12 13 12 12 12 11 10 9 8 8 7 7 7 6 6 6
10 7 4 4 4 5 5 5 6 8 8 8 8 8 9 9 9 8 8 7 8 10 12 12 11 11 11 12 12 12 12 12 10 9 9 8 8 8 8 8 8 7 7
6 5 4 4 5 6 8 8 8 9 9 8 9 10 10 9 9 8 7 7 7 12 15 14 14 13 12 12 11 11 10 10 9 9 9 9 9 9 9 9 8 9 9
6 5 4 4 7 9 9 9 9 9 9 9 11 9 7 7 7 6 7 7 10 14 16 15 14 14 14 13 12 11 11 11 10 10 10 10 10 9 10 10 11 10 9
5 5 5 6 10 10 9 10 10 10 12 13 10 7 6 5 6 7 7 9 10 13 16 17 16 16 15 15 14 13 13 13 13 12 12 12 11 11 10 10 10 10 9
6 5 6 10 10 11 10 11 12 15 16 12 9 7 6 6 6 7 8 8 8 14 16 18 20 21 21 19 17 16 15 15 15 15 14 14 13 12 11 11 10 10 10
6 6 11 11 11 12 14 17 17 14 10 10 9 7 6 6 7 7 8 8 8 13 16 23 25 25 24 24 24 20 18 18 17 15 14 14 14 13 12 11 11 11 10
6 11 11 12 13 15 17 18 12 11 10 10 8 7 6 7 7 8 8 8 8 10 16 24 26 26 26 26 24 23 22 20 19 19 17 14 13 13 13 12 12 12 12
11 12 12 12 15 17 18 18 12 11 12 11 10 9 8 8 8 8 8 8 8 11 18 25 26 26 26 27 26 24 24 22 21 20 18 17 16 15 14 13 13 13 13
12 12 12 12 14 16 18 20 19 13 13 13 12 10 9 8 8 9 9 9 10 13 22 26 27 28 28 27 28 26 24 22 21 21 20 19 16 14 14 14 13 13 13
13 13 14 15 15 17 18 22 20 18 17 16 14 11 10 9 9 9 9 10 12 16 22 27 27 30 30 30 28 27 27 25 22 21 20 21 21 17 14 13 13 13 13
14 14 15 15 17 20 24 24 26 26 24 20 15 12 10 9 9 10 10 11 13 17 22 27 30 32 33 35 34 31 27 24 23 22 22 20 19 19 19 18 17 16 15
16 15 15 16 20 23 29 31 33 33 30 24 17 14 12 10 10 10 10 12 14 17 22 27 31 34 40 39 36 32 29 26 26 25 25 24 24 22 21 21 21 21 21
16 16 15 17 22 28 33 32 36 37 37 31 25 19 13 11 10 10 11 13 14 16 21 29 31 39 40 35 33 30 26 23 23 25 26 25 24 24 24 23 23 22 22
15 17 16 16 21 27 32 31 37 42 41 35 30 20 13 12 11 11 12 13 15 17 22 29 33 42 36 35 32 28 25 24 25 25 25 24 24 23 24 23 23 22 20
16 16 18 18 20 25 28 35 38 43 41 38 32 19 15 12 11 11 13 14 16 19 25 30 43 39 32 32 30 29 26 26 26 26 25 25 25 25 25 24 23 23 23
17 19 20 20 21 24 31 38 40 40 36 33 27 18 12 12 12 12 14 15 18 23 32 45 43 34 31 32 30 29 26 27 28 30 30 28 25 25 25 23 22 20 19
23 25 24 23 23 26 41 42 43 42 34 27 23 14 13 12 13 14 15 17 20 28 43 48 41 32 28 28 28 30 30 29 30 30 31 30 27 25 24 22 20 18 17
32 31 26 24 25 34 42 44 42 38 28 28 20 15 13 13 14 16 17 20 26 37 48 52 42 33 30 28 26 25 26 28 27 29 28 27 25 24 22 19 17 15 14
34 38 36 30 31 35 40 41 39 31 27 27 19 15 14 15 16 18 22 26 33 46 53 51 42 35 33 30 29 27 22 22 19 22 24 24 23 21 18 17 16 14 10
31 34 36 40 40 38 40 38 35 32 26 21 16 16 15 16 18 20 25 34 44 52 56 54 46 39 36 33 33 32 29 26 20 17 19 21 22 21 20 17 14 10 4
38 40 45 41 34 30 33 32 33 31 29 23 18 16 17 19 19 23 30 40 50 53 60 59 52 46 44 38 38 37 35 32 29 24 21 23 23 23 20 15 9 4 2
38 38 38 36 32 32 32 32 35 35 25 20 18 18 20 20 19 24 30 40 54 54 59 63 59 55 52 45 44 41 37 34 33 29 25 24 22 21 17 9 5 2 2
Wind_Speed
12 10 10 10 11 10 8 7 7 7 7 5 6 7 7 8 9 10 11 12 13 13 12 13 14 15 16 16 16 18 19 18 18 18 18 20 20 20 19 18 19 16 15
10 11 10 12 12 10 9 8 7 6 7 7 9 9 10 11 12 12 13 14 14 14 15 15 15 16 17 17 19 20 21 20 20 20 19 19 19 19 19 18 18 16 17
11 12 13 13 14 13 10 8 7 6 7 9 10 12 12 13 13 14 13 13 14 16 17 18 18 20 20 21 22 23 23 24 23 22 20 18 18 17 17 16 17 16 13
13 15 15 16 15 13 11 10 8 8 10 12 12 14 13 13 12 12 12 13 15 17 19 20 21 23 24 25 25 25 25 25 24 22 21 19 18 19 19 17 17 17 17
16 17 17 18 16 13 11 11 10 11 14 13 13 12 11 12 12 10 11 13 16 19 21 21 23 24 25 26 27 26 26 25 24 23 22 21 21 20 21 21 22 23 23
16 18 19 18 15 13 12 13 12 14 14 13 12 12 13 11 11 12 15 17 18 20 21 23 24 25 26 25 25 26 25 25 25 25 24 24 25 24 25 26 26 26 26
19 19 18 17 16 15 13 14 14 14 13 13 15 13 13 14 15 16 17 17 19 22 22 22 23 24 25 25 25 26 26 27 27 27 27 28 28 29 29 30 30 29 28
20 20 19 18 18 16 14 15 14 15 16 16 14 15 16 18 17 17 18 18 20 22 22 22 23 23 25 27 28 29 29 30 30 31 31 32 32 33 33 33 33 33 33
21 21 20 20 18 16 16 15 16 18 18 16 16 17 18 17 17 19 18 19 22 21 23 24 24 25 25 27 29 31 32 33 34 34 35 36 36 37 37 36 36 36 37
23 22 20 19 17 17 16 18 19 18 18 18 18 20 20 19 19 19 20 22 23 22 24 25 26 26 27 27 28 29 32 34 34 36 37 39 40 40 41 41 41 40 40
22 21 20 19 19 18 19 20 19 19 19 19 20 21 21 20 19 20 22 23 23 25 26 27 28 29 30 30 31 30 32 33 35 37 38 40 41 43 45 45 46 46 45
24 23 21 21 21 21 21 19 20 22 21 21 22 23 22 21 21 22 23 25 26 26 27 29 30 32 32 33 33 33 32 34 36 38 40 42 43 45 46 48 50 51 52
24 22 24 25 24 24 24 23 23 25 23 23 24 24 23 23 22 23 25 26 27 28 29 31 32 33 35 36 36 35 36 36 37 39 41 43 46 47 49 51 52 54 55
24 25 26 25 25 26 25 26 26 25 25 25 25 25 25 24 24 25 27 28 29 31 32 34 36 37 38 38 39 39 39 40 41 42 42 44 46 49 51 53 55 57 58
27 30 27 25 26 26 27 25 25 24 26 26 27 27 26 26 26 27 28 30 32 33 35 37 38 40 42 42 43 43 43 44 44 45 46 47 49 50 53 55 58 61 63
31 30 30 28 29 29 29 27 26 27 27 27 28 27 28 29 29 29 31 32 34 35 37 39 41 43 44 45 46 46 46 47 48 49 50 50 52 54 56 59 62 64 67
32 32 32 31 32 33 32 29 30 29 29 28 27 28 30 31 31 32 34 35 36 38 39 41 43 45 46 46 46 46 47 48 50 51 51 52 54 57 60 62 65 68 71
33 33 36 37 37 36 33 33 33 31 30 29 29 30 32 33 33 35 36 37 38 40 42 44 46 47 46 45 46 48 48 48 47 49 51 54 57 61 64 68 70 74 77
35 38 39 40 38 36 36 33 33 32 32 32 31 33 33 33 35 36 37 39 40 42 44 46 47 47 46 46 47 47 47 47 49 52 55 58 62 65 69 73 76 80 84
37 40 40 39 37 37 36 33 32 33 34 34 33 34 34 35 36 37 39 40 42 43 45 48 49 48 46 46 45 46 48 50 52 55 59 62 66 69 73 77 80 83 87
39 38 39 39 39 37 35 34 33 36 36 35 35 35 36 36 37 39 40 42 43 45 48 49 49 49 48 48 48 49 52 54 56 58 62 65 68 71 74 79 84 89 92
37 38 39 39 39 37 37 36 36 37 35 36 37 38 38 38 38 40 41 43 45 48 50 50 50 51 51 51 52 53 53 54 57 59 63 67 71 75 79 86 90 94 94
39 38 39 39 40 40 40 38 38 35 36 37 40 39 40 39 39 40 42 45 47 50 52 53 53 54 55 56 57 58 59 60 61 63 66 72 76 80 85 91 92 97 98
38 40 40 40 42 42 41 40 36 34 36 39 40 41 40 39 41 41 43 47 49 51 53 54 55 56 57 58 59 61 63 65 68 69 71 77 81 86 88 89 95 99 104
42 41 40 40 42 41 40 37 36 35 38 41 41 42 40 41 42 43 46 48 50 52 54 56 58 58 59 61 62 63 65 68 72 75 77 79 82 84 88 91 98 103 105
43 42 41 40 40 39 38 37 37 37 39 40 41 42 42 43 44 46 48 51 53 55 57 58 59 60 62 63 66 66 68 71 74 78 80 82 84 82 89 98 104 102 90
Wind_Direction
231 237 232 226 225 226 215 210 213 212 205 229 255 266 277 286 289 289 288 287 291 290 286 281 279 279 276 277 279 283 286 286 288 289 289 291 290 291 294 292 289 283 283
233 236 224 216 223 210 202 200 192 206 230 261 273 279 280 283 285 288 292 298 302 299 297 293 289 284 282 280 280 280 284 285 286 286 286 284 285 286 287 292 293 292 284
238 231 215 222 210 206 209 211 208 218 244 264 272 278 278 283 293 295 293 297 298 297 295 293 291 289 286 282 280 283 287 290 289 289 285 279 279 282 285 289 294 297 296
244 225 219 219 211 214 215 216 227 237 255 262 271 275 282 287 286 288 298 305 308 306 302 296 291 287 284 283 283 284 285 285 284 280 281 279 281 285 283 284 288 288 288
232 222 220 217 219 219 222 228 235 251 257 263 270 273 274 276 277 286 297 304 307 307 302 299 296 291 287 286 286 287 287 284 281 280 280 280 281 281 280 282 283 284 286
228 219 217 215 220 226 231 238 246 251 260 264 264 270 271 270 277 290 296 301 303 305 303 300 294 292 291 288 287 285 282 279 276 274 274 276 276 277 277 279 279 280 281
230 220 215 217 226 233 238 249 250 254 255 259 270 270 268 272 278 286 292 299 306 311 309 306 301 295 289 288 286 281 279 279 277 274 274 274 275 274 274 276 278 279 279
227 221 220 225 229 235 243 247 247 250 258 263 265 269 272 274 277 285 290 301 306 313 312 308 302 299 294 289 284 281 280 278 276 274 271 271 271 271 272 271 273 277 278
224 223 224 228 234 241 241 241 252 260 263 261 263 268 270 272 278 285 294 306 304 305 308 308 303 300 297 292 287 285 282 278 276 274 273 272 271 270 269 268 269 270 272
225 225 230 232 237 238 245 254 259 258 258 259 262 266 269 273 279 290 299 301 296 299 306 308 307 305 299 295 291 286 281 278 278 275 273 272 271 269 268 267 267 267 268
228 231 233 235 236 244 253 260 259 256 257 260 265 268 272 275 283 291 297 295 297 300 302 304 306 306 305 301 296 292 288 284 279 276 273 271 270 269 268 268 267 267 267
232 232 237 236 239 246 254 261 260 257 260 262 267 271 274 277 284 292 296 298 297 294 298 302 305 305 303 301 298 295 290 287 284 281 278 276 274 272 269 267 266 266 267
235 236 239 237 242 249 256 263 264 261 263 266 270 273 275 278 285 293 295 294 291 292 297 302 304 303 303 303 300 297 294 291 287 283 278 276 275 273 271 270 269 268 267
238 240 241 240 244 251 259 265 265 263 266 269 273 274 275 280 286 291 291 292 292 293 296 299 302 305 306 305 303 301 298 294 291 289 285 280 276 275 274 273 272 271 270
238 239 242 245 249 253 257 260 264 266 269 273 273 272 276 281 285 288 291 291 290 290 293 300 304 307 307 306 305 304 301 297 294 291 287 283 280 278 277 276 274 273 272
240 242 243 246 250 251 254 259 266 269 272 272 272 275 280 282 284 288 289 289 289 292 296 301 304 307 308 308 306 303 300 297 294 291 289 286 284 283 281 279 278 277 276
241 246 246 249 249 250 254 262 266 268 269 273 278 281 281 281 284 287 289 290 292 294 296 301 303 306 307 306 302 300 298 296 294 292 290 287 285 284 282 282 281 280 278
242 245 246 246 247 249 254 260 266 269 272 277 281 283 281 282 285 287 289 291 294 296 298 300 303 306 306 303 302 300 297 295 293 292 290 289 287 286 285 284 281 279 278
240 244 245 246 247 251 255 261 265 269 275 278 281 282 281 284 285 287 289 291 295 296 298 301 303 305 303 300 298 297 297 296 294 293 292 290 289 287 285 283 282 280 279
240 243 245 248 251 253 256 262 267 272 275 278 281 281 282 283 283 286 288 291 294 297 302 304 303 301 301 302 300 299 297 296 296 294 294 293 291 291 290 289 287 285 284
245 249 251 250 250 249 255 261 267 270 276 280 280 280 280 280 283 284 287 291 295 300 303 305 303 304 305 304 302 301 301 301 299 298 296 294 293 292 293 293 292 292 290
246 247 248 248 248 251 257 261 266 272 279 278 279 279 279 280 281 284 288 293 298 299 301 306 306 306 305 305 305 304 302 300 299 298 298 299 299 299 299 297 296 295 294
247 248 248 247 248 251 256 263 267 274 277 275 275 278 278 279 281 284 290 295 296 301 304 305 306 307 307 307 307 305 303 303 302 303 303 303 303 303 303 301 301 299 303
248 246 247 248 251 253 256 261 267 272 273 272 274 277 278 280 282 286 291 295 298 302 304 304 305 306 307 306 306 305 304 305 304 303 305 307 308 308 307 306 304 305 310
246 247 247 250 253 256 258 262 267 270 271 274 278 278 279 279 282 286 290 295 299 302 304 304 303 305 306 306 306 306 306 307 308 308 307 309 311 312 311 310 309 314 314
252 253 255 257 259 257 259 262 266 269 272 277 277 278 279 281 283 286 290 295 299 301 303 304 304 305 306 307 308 308 308 308 309 309 310 311 313 314 313 314 314 318 316